Air Resources Laboratory banner image
Air Resources Laboratory web site National Oceanic and Atmospheric Administration (NOAA)

ma roundup


Office: BOX

ASUS41 KBOX 111710
RWRBOX

REGIONAL WEATHER ROUNDUP
NATIONAL WEATHER SERVICE BOSTON/NORTON MA
100 PM EDT THU AUG 11 2022

NOTE:  "FAIR" INDICATES FEW OR NO CLOUDS BELOW 12,000 FEET WITH NO
SIGNIFICANT WEATHER AND/OR OBSTRUCTIONS TO VISIBILITY.

MAZALL-111800-
EASTERN MASSACHUSETTS

CITY           SKY/WX    TMP DP  RH WIND       PRES   REMARKS
BOSTON         CLOUDY    69  66  90 SE10      29.90F
BEVERLY        SUNNY     74  66  76 SE7       29.89F
LAWRENCE       MOSUNNY   79  63  57 MISG      29.90F
BEDFORD        MOSUNNY   79  62  56 VRB5      29.88F
BLUE HILL      NOT AVBL
NORWOOD        SUNNY     78  66  66 SE5       29.89F
MARSHFIELD     SUNNY     70  68  94 VRB5      29.91S
PLYMOUTH       LGT RAIN  72  70  93 S5        29.91F
TAUNTON        LGT RAIN  72  69  90 SE8       29.89F
NEW BEDFORD    LGT RAIN  71  70  96 SE6       29.90F
$$

MAZALL-111800-
CAPE COD AND THE ISLANDS

CITY           SKY/WX    TMP DP  RH WIND       PRES   REMARKS
FALMOUTH       LGT RAIN  70  70 100 S8G14     29.93S
HYANNIS        RAIN      72  69  90 SE3       29.91F FOG
CHATHAM        LGT RAIN  69  66  90 VRB3      29.93F
NANTUCKET      RAIN      71  69  93 SE3       29.92F FOG
MARTHAS VNYRD  RAIN      70  69  97 SE6       29.91F FOG
$$

MAZALL-111800-
CENTRAL AND WESTERN MASSACHUSETTS

CITY           SKY/WX    TMP DP  RH WIND       PRES   REMARKS
WORCESTER      MOSUNNY   76  57  51 W10       29.93F
FITCHBURG      SUNNY     82  50  32 VRB6      29.90F
ORANGE         MOSUNNY   79  56  45 W7        29.91F
SPRINGFIELD    PTSUNNY   80  56  42 W3        29.87F
WESTFIELD      PTSUNNY   81  56  42 NW7       29.89F
NORTH ADAMS    MOSUNNY   77  59  53 NW7       29.91F
PITTSFIELD     MOSUNNY   79  55  43 W12       29.92F
$$

RIZALL-111800-
RHODE ISLAND

CITY           SKY/WX    TMP DP  RH WIND       PRES   REMARKS
PROVIDENCE     PTSUNNY   73  71  93 S9        29.91F
NEWPORT        LGT RAIN  70  70 100 SE6       29.90F
BLOCK ISLAND   MOSUNNY   72  70  94 SE6       29.90F
SMITHFIELD     PTSUNNY   76  69  79 CALM      29.91F
WESTERLY       CLOUDY    74  72  93 SE8       29.90F
$$

CTZALL-111800-
CONNECTICUT

CITY           SKY/WX    TMP DP  RH WIND       PRES   REMARKS
BRADLEY INTL   PTSUNNY   82  59  45 SW7       29.89F
HARTFORD       MOSUNNY  N/A N/A N/A CALM      29.88F
BRIDGEPORT     MOSUNNY   80  71  74 SE10      29.88F
DANBURY        SUNNY     82  57  42 W9        29.92F
GROTON         PTSUNNY   76  71  85 S10       29.89F
NEW HAVEN      MOSUNNY   83  72  69 S10       29.89F
CHESTER        PTSUNNY   81  64  57 CALM      29.90F
MERIDEN        SUNNY     83  57  41 VRB7      29.89F
WILLIMANTIC    SUNNY     79  59  50 CALM      29.90F
OXFORD         MOSUNNY   78  59  51 VRB3      29.93F
$$

MEZ002-015-021-024-NHZ003-005-008-011-012-014-VTZ005-008-111800-
NORTHERN NEW ENGLAND

CITY           SKY/WX    TMP DP  RH WIND       PRES   REMARKS
PORTLAND ME    CLOUDY    74  62  66 SE9       29.90F
BANGOR ME      PTSUNNY   74  61  63 S15       29.90F
CONCORD NH     PTSUNNY   79  60  52 S6        29.89F
MANCHESTER NH  PTSUNNY   82  57  42 CALM      29.87F
NASHUA NH      PTSUNNY   81  61  50 SE6       29.89F
PORTSMOUTH NH  PTSUNNY   74  63  69 SE8       29.89F
JAFFREY NH     MOSUNNY   77  55  46 W8        29.92F
KEENE NH       MOSUNNY   78  57  48 W7          N/A
BURLINGTON VT  MOSUNNY   80  59  48 VRB7      29.87F
MT. WASHINGTON FOG       52  52 100 S6          N/A  VSB 1/8
$$

NYZ052-076-111800-
EASTERN NEW YORK

CITY           SKY/WX    TMP DP  RH WIND       PRES   REMARKS
ALBANY         PTSUNNY   80  58  46 NW8       29.89F
NEW YORK CITY  PTSUNNY   82  59  45 N5        29.88F
$$

ANZALL-111800-
MARINE OBSERVATIONS

STATION/POSITION TIME  TEMP    WIND        PRES    VSBY  WAVE
                       AIR SEA DIR/SP/G                  HT/PER
                 (UTC) (F)     (DEG/KT/KT) (MB)    (MI)  (FT/S)
BOSTON BUOY      NOT AVBL
BUZZARDS BAY     NOT AVBL
NANTUCKET SOUND  NOT AVBL
MASS BAY-STELLWA NOT AVBL
ISLE OF SHOALS   NOT AVBL
S OF BLOCK IS    NOT AVBL
$$

......................KEY.........................
  SKY/WX - SKY CONDITION/PRESENT WEATHER
  TMP    - TEMPERATURE IN FAHRENHEIT
  DWPT   - DEWPOINT IN FAHRENHEIT
  RH     - RELATIVE HUMIDITY IN PERCENT
  WIND   - DIRECTION AND SPEED IN MPH
  PRES   - MEAN SEA LEVEL PRESSURE IN INCHES OF HG
  WCI    - WIND CHILL INDEX
  VSB    - VISIBILITY IN MILES
  HX     - HEAT INDEX
  TC     - TEMPERATURE IN CELSIUS
  VRB    - VARIABLE WIND DIRECTION
  N/A    - NOT AVAILABLE




Office: GYX ASUS41 KGYX 111710 RWRGYX WEATHER ROUNDUP FOR MAINE AND NEW HAMPSHIRE NATIONAL WEATHER SERVICE GRAY ME 100 PM EDT THU AUG 11 2022 MEZ002-005-006-010-012-015-018-020-021-024-026-027-029-111800- MAINE CITY SKY/WX TMP DP RH WIND PRES REMARKS PORTLAND CLOUDY 74 62 66 SE9 29.90F SANFORD MOSUNNY 75 66 73 SE7 29.90F BAR HARBOR CLOUDY 70 62 76 S7 29.91F WISCASSET SUNNY 72 63 73 S7 29.92F ROCKLAND PTSUNNY 69 65 86 SE7 29.92F FRYEBURG PTSUNNY 77 61 57 VRB5 29.89F LEWISTONAUBURN PTSUNNY 75 65 70 S7 29.89F AUGUSTA SUNNY 74 64 71 VRB5 29.91F WATERVILLE MOSUNNY 73 63 68 VRB3 29.88F BANGOR PTSUNNY 74 61 63 S15 29.90F GREENVILLE N/A 69 60 73 VRB3 29.89F MILLINOCKET PTSUNNY 74 63 68 VRB3 29.89F HOULTON CLOUDY 73 60 63 SW8 29.87S PRESQUE ISLE CLOUDY 73 61 65 SW7 29.87F FRENCHVILLE CLOUDY 72 61 68 S7 29.85F CARIBOU CLOUDY 73 61 65 S3 29.85F $$ NHZ002-005-008-009-011-012-014-111800- NEW HAMPSHIRE CITY SKY/WX TMP DP RH WIND PRES REMARKS PORTSMOUTH PTSUNNY 74 63 69 SE8 29.89F ROCHESTER MOSUNNY 81 64 56 VRB5 29.89F NASHUA PTSUNNY 81 61 50 SE6 29.89F MANCHESTER PTSUNNY 82 57 42 CALM 29.87F CONCORD PTSUNNY 79 60 52 S6 29.89F LACONIA MOSUNNY 77 61 57 VRB3 29.89F BERLIN CLOUDY 73 59 61 VRB3 29.92S WHITEFIELD CLOUDY 75 61 61 N3 29.91F JAFFREY MOSUNNY 77 55 46 W8 29.92F KEENE MOSUNNY 78 57 48 W7 N/A LEBANON PTSUNNY 79 57 46 SE6 29.88F MT WASHINGTON FOG 52 52 100 S6 N/A VSB 1/8 $$ VTZ005-007-008-111800- VERMONT CITY SKY/WX TMP DP RH WIND PRES REMARKS MONTPELIER PTSUNNY 78 58 49 VRB5 29.94F BURLINGTON MOSUNNY 80 59 48 VRB7 29.87F $$ MAZ007-012-024-CTZ003-RIZ002-NYZ038-NYZ072-111800- SOUTHERN NEW ENGLAND AND NY CITY SKY/WX TMP DP RH WIND PRES REMARKS BOSTON CLOUDY 69 66 90 SE10 29.90F WORCESTER MOSUNNY 76 57 51 W10 29.93F NANTUCKET RAIN 71 69 93 SE3 29.92F FOG PROVIDENCE PTSUNNY 73 71 93 S9 29.91 HARTFORD PTSUNNY 82 59 45 SW7 29.89F ALBANY PTSUNNY 80 58 46 NW8 29.89F NEW YORK CITY PTSUNNY 82 59 45 N5 29.88F $$ ANZ081-ANZ082-ANZ150-NHZ014-MEZ023>029-111800- COASTAL MARINE OBSERVATIONS STATION/POSITION TIME TEMP WIND PRES WAVE AIR SEA DIR/SP/G HT/PER (UTC) (F) (DEG/KT/KT) (MB) (FT/S) MOUNT DESERT ROC 1700 69 190/ 4/ 4 1013.1F MATINICUS ROCK 1600 65 140/ 8/ 8 1013.4F ISLE OF SHOALS 1600 66 150/ 6/ 7 1012.4F JEFFREYS LEDGE 1626 67 N/A 2/ 8 CASHES LEDGE BUO 1550 70 72 210/ 6/ 10 1012.4 2/ 7 GEORGES BANK BUO 1640 69 1013.9F $$ .............KEY.............. WCI - WIND CHILL TC - TEMPERATURE IN CELSIUS VSB - VISIBILITY IN MILES HX - HEAT INDEX FAIR- INDICATES FEW OR NO CLOUDS BELOW 12,000 FT, WITH NO SIGNIFICANT WEATHER AND/OR OBSTRUCTIONS TO VISIBILITY. ASUS41 KGYX 111711 RWRGYX WEATHER ROUNDUP FOR MAINE AND NEW HAMPSHIRE NATIONAL WEATHER SERVICE GRAY ME 100 PM EDT THU AUG 11 2022 MEZ002-005-006-010-012-015-018-020-021-024-026-027-029-111800- MAINE CITY SKY/WX TMP DP RH WIND PRES REMARKS PORTLAND CLOUDY 74 62 66 SE9 29.90F SANFORD MOSUNNY 75 66 73 SE7 29.90F BAR HARBOR CLOUDY 70 62 76 S7 29.91F WISCASSET SUNNY 72 63 73 S7 29.92F ROCKLAND PTSUNNY 69 65 86 SE7 29.92F FRYEBURG PTSUNNY 77 61 57 VRB5 29.89F LEWISTONAUBURN PTSUNNY 75 65 70 S7 29.89F AUGUSTA SUNNY 74 64 71 VRB5 29.91F WATERVILLE MOSUNNY 73 63 68 VRB3 29.88F BANGOR PTSUNNY 74 61 63 S15 29.90F GREENVILLE N/A 69 60 73 VRB3 29.89F MILLINOCKET PTSUNNY 74 63 68 VRB3 29.89F HOULTON CLOUDY 73 60 63 SW8 29.87S PRESQUE ISLE CLOUDY 73 61 65 SW7 29.87F FRENCHVILLE CLOUDY 72 61 68 S7 29.85F CARIBOU CLOUDY 73 61 65 S3 29.85F $$ NHZ002-005-008-009-011-012-014-111800- NEW HAMPSHIRE CITY SKY/WX TMP DP RH WIND PRES REMARKS PORTSMOUTH PTSUNNY 74 63 69 SE8 29.89F ROCHESTER MOSUNNY 81 64 56 VRB5 29.89F NASHUA PTSUNNY 81 61 50 SE6 29.89F MANCHESTER PTSUNNY 82 57 42 CALM 29.87F CONCORD PTSUNNY 79 60 52 S6 29.89F LACONIA MOSUNNY 77 61 57 VRB3 29.89F BERLIN CLOUDY 73 59 61 VRB3 29.92S WHITEFIELD CLOUDY 75 61 61 N3 29.91F JAFFREY MOSUNNY 77 55 46 W8 29.92F KEENE MOSUNNY 78 57 48 W7 N/A LEBANON PTSUNNY 79 57 46 SE6 29.88F MT WASHINGTON FOG 52 52 100 S6 N/A VSB 1/8 $$ VTZ005-007-008-111800- VERMONT CITY SKY/WX TMP DP RH WIND PRES REMARKS MONTPELIER PTSUNNY 78 58 49 VRB5 29.94F BURLINGTON MOSUNNY 80 59 48 VRB7 29.87F $$ MAZ007-012-024-CTZ003-RIZ002-NYZ038-NYZ072-111800- SOUTHERN NEW ENGLAND AND NY CITY SKY/WX TMP DP RH WIND PRES REMARKS BOSTON CLOUDY 69 66 90 SE10 29.90F WORCESTER MOSUNNY 76 57 51 W10 29.93F NANTUCKET RAIN 71 69 93 SE3 29.92F FOG PROVIDENCE PTSUNNY 73 71 93 S9 29.91F HARTFORD PTSUNNY 82 59 45 SW7 29.89F ALBANY PTSUNNY 80 58 46 NW8 29.89F NEW YORK CITY PTSUNNY 82 59 45 N5 29.88F $$ ANZ081-ANZ082-ANZ150-NHZ014-MEZ023>029-111800- COASTAL MARINE OBSERVATIONS STATION/POSITION TIME TEMP WIND PRES WAVE AIR SEA DIR/SP/G HT/PER (UTC) (F) (DEG/KT/KT) (MB) (FT/S) MOUNT DESERT ROC 1700 69 190/ 4/ 4 1013.1F MATINICUS ROCK 1600 65 140/ 8/ 8 1013.4F ISLE OF SHOALS 1600 66 150/ 6/ 7 1012.4F JEFFREYS LEDGE 1626 67 N/A 2/ 8 CASHES LEDGE BUO 1550 70 72 210/ 6/ 10 1012.4 2/ 7 GEORGES BANK BUO 1640 69 1013.9F $$ .............KEY.............. WCI - WIND CHILL TC - TEMPERATURE IN CELSIUS VSB - VISIBILITY IN MILES HX - HEAT INDEX FAIR- INDICATES FEW OR NO CLOUDS BELOW 12,000 FT, WITH NO SIGNIFICANT WEATHER AND/OR OBSTRUCTIONS TO VISIBILITY.
Office: OKX ASUS41 KOKX 111705 RWROKX Regional Weather Roundup National Weather Service New York NY 100 PM EDT THU AUG 11 2022 Note: "FAIR" indicates few or no clouds below 12,000 feet with no significant weather and/or obstructions to visibility. NYZ071-072-176-178-NJZ106-104-111800- New York City Metro Area CITY SKY/WX TMP DP RH WIND PRES REMARKS Central Park MOSUNNY 84 61 45 CALM 29.92F World Trd Ctr NOT AVBL Bronx Lehman C N/A 82 63 51 NW3 N/A LaGuardia Arpt PTSUNNY 82 59 45 N5 29.88F Queens College N/A N/A N/A N/A NE5 N/A Kennedy Intl PTSUNNY 83 62 49 N8 29.89F Breezy Point N/A 79 N/A N/A SW6 N/A Brooklyn Coll N/A 82 59 44 N5 N/A Staten Island N/A 84 59 42 NE2 N/A Newark/Liberty PTSUNNY 86 58 38 CALM 29.88F Teterboro MOSUNNY 84 59 42 W10 29.87F $$ NYZ177-179-078>081-111800- Long Island New York CITY SKY/WX TMP DP RH WIND PRES REMARKS Jones Beach N/A 81 N/A N/A N2 N/A Wantagh N/A 84 63 48 NE3 N/A Hempstead NOT AVBL Matinecock Pt N/A 82 N/A N/A CALM N/A Farmingdale MOSUNNY 85 62 46 N9 29.89F MacArthur/ISP PTSUNNY 83 65 54 N7 29.89F Stony Brook N/A 81 70 69 E2 N/A Shirley MOSUNNY 80 66 62 VRB3 29.89F Mt Sinai Harb N/A 81 N/A N/A NE3 N/A Westhampton MOSUNNY 79 73 82 VRB5 29.90F East Hampton CLOUDY N/A N/A N/A SE6 29.90F Southold N/A 77 72 83 S7 N/A Montauk N/A 76 71 85 VRB3 29.90F $$ NYZ052-065-067-111800- Hudson Valley CITY SKY/WX TMP DP RH WIND PRES REMARKS White Plains NOT AVBL Larchmont Harb N/A 77 N/A N/A E7 N/A Croton On Huds N/A 82 N/A N/A SW2 N/A Somers N/A 81 57 44 W5 N/A Brewster N/A 82 59 44 N7 N/A Newburgh MOSUNNY 84 54 34 NW12 29.91F Montgomery SUNNY 82 56 40 MISG 29.90F Otisville N/A 81 57 44 N3 N/A Warwick N/A 82 55 39 NW10 N/A Suffern N/A 81 55 41 W3 N/A Poughkeepsie SUNNY 85 57 38 VRB3 29.88F Albany PTSUNNY 80 58 46 NW8 29.89F $$ NJZ001-105-106-008-010-013-015-019>022-104-111800- New Jersey CITY SKY/WX TMP DP RH WIND PRES REMARKS Newark/Liberty PTSUNNY 86 58 38 CALM 29.88F Teterboro MOSUNNY 84 59 42 W10 29.87F Caldwell MOSUNNY 85 57 38 VRB6 29.90F Somerville MOSUNNY 88 58 36 N12G17 29.88F Linden FAIR 86 58 38 NW8 29.89F Perth Amboy N/A 81 N/A N/A W3 N/A Sussex MOSUNNY 83 58 42 VRB5 29.92F Andover N/A 86 57 37 MISG 29.92F Trenton MOSUNNY 83 65 54 VRB3 29.90F Millville PTSUNNY 83 71 67 VRB5 29.91F Atlantic City PTSUNNY 81 70 69 N5 29.91F Wrightstown MOSUNNY 85 65 50 NW5 29.90F Toms River NOT AVBL Belmar MOSUNNY 83 69 62 NW9 29.92F $$ PAZ047>061-062-071-111800- Eastern Pennsylvania CITY SKY/WX TMP DP RH WIND PRES REMARKS Philadelphia MOSUNNY 86 64 47 VRB5 29.91F Allentown MOSUNNY 85 58 39 W8 29.92F Scranton SUNNY 82 59 45 CALM 29.95F $$ CTZ002-004>006-009-010-012-RIZ004-006-007-MAZ004-011-015-111800- Southern New England In CT CITY SKY/WX TMP DP RH WIND PRES REMARKS Bradley Intl PTSUNNY 82 59 45 SW7 29.89F Hartford MOSUNNY N/A N/A N/A CALM 29.88F Danbury SUNNY 82 57 42 W9 29.92F Wtrbury/Oxford MOSUNNY 78 59 51 VRB3 29.93F Norwalk Harbor N/A 77 N/A N/A SE8 N/A Bridgeport MOSUNNY 80 71 74 SE10 29.88F Meriden SUNNY 83 57 41 VRB7 29.89F New Haven MOSUNNY 83 72 69 S10 29.89F Chester PTSUNNY 81 64 57 CALM 29.90F Groton PTSUNNY 76 71 85 S10 29.89F Willimantic SUNNY 79 59 50 CALM 29.90F In RI CITY SKY/WX TMP DP RH WIND PRES REMARKS Providence PTSUNNY 73 71 93 S9 29.91F Block Island PTSUNNY 70 69 97 SE6 29.90F Westerly CLOUDY 74 72 93 SE8 29.90F In MA CITY SKY/WX TMP DP RH WIND PRES REMARKS Boston CLOUDY 69 66 90 SE10 29.90F Worcester MOSUNNY 76 57 51 W10 29.93F Westfield PTSUNNY 81 56 42 NW7 29.89F Provincetown NOT AVBL Nantucket RAIN 71 69 93 SE3 29.92F FOG $$ ANZ330-335-338-340-345-350-353-355-111800- Coastal Marine Observations STATION/POSITION TIME SKY/WX TEMP WIND PRES VSBY WAVE AIR SEA DIR/SP/G HT/PER (UTC) (F) (DEG/KT/KT) (MB) (MI) (FT/S) NY Harb Entrance 1640 72 290/ 6/ 8 1011.8 20 S Fire Island 1640 76 1011.8 Great South Bay 1615 78 40/ 4/ 6 N/A 23 SSW Montauk P 1640 72 70/ 8/ 10 1012.3 15 E Barnegat Li 1626 77 N/A 2/10 Hudson Canyon 1640 75 76 310/ 10/ 12 1011.6 Kings Point 1630 80 72 20/ 3/ 5 1012.6 Execution Rocks 1630 78 140/ 4/ 16 N/A Western LI Sound 1645 79 160/ 2/ 4 N/A Central LI Sound NOT AVBL Robbins Reef 1624 79 80/ 5/ 6 1012.3 $$ >>>>>>>>>>>>>>>>>>>>>>>>>>>> KEY <<<<<<<<<<<<<<<<<<<<<<<<<<< > < > SKY/WX - Sky Condition/Present Weather < > TMP - Temperature in Fahrenheit < > DP - Dew Point in Fahrenheit < > RH - Relative Humidity in Percent < > WIND - Direction (from) and Speed in MPH < > PRES - Mean Sea Level Pressure (inches of Hg) < > WCI - Wind Chill Index < > VSB - Visibility in Miles < > HX - Heat Index < > TC - Temperature in Celsius < > VRB - Variable Wind Direction < > < >>>>>>>>>>>>>>>>>>>>>>>>>>>> KEY <<<<<<<<<<<<<<<<<<<<<<<<<<< ASUS41 KOKX 111711 RWROKX Regional Weather Roundup National Weather Service New York NY 100 PM EDT THU AUG 11 2022 Note: "FAIR" indicates few or no clouds below 12,000 feet with no significant weather and/or obstructions to visibility. NYZ071-072-176-178-NJZ106-104-111800- New York City Metro Area CITY SKY/WX TMP DP RH WIND PRES REMARKS Central Park SUNNY 84 61 45 CALM 29.92F World Trd Ctr NOT AVBL Bronx Lehman C N/A 82 61 47 W3 N/A LaGuardia Arpt PTSUNNY 82 59 45 N5 29.88F Queens College N/A 82 63 51 E6 N/A Kennedy Intl PTSUNNY 83 62 49 N8 29.89F Breezy Point N/A 79 N/A N/A SW6 N/A Brooklyn Coll N/A 82 61 47 NW6 N/A Staten Island N/A 86 61 42 W5 N/A Newark/Liberty PTSUNNY 86 58 38 CALM 29.88F Teterboro SUNNY 84 59 42 W10 29.87F $$ NYZ177-179-078>081-111800- Long Island New York CITY SKY/WX TMP DP RH WIND PRES REMARKS Jones Beach N/A 81 N/A N/A N2 N/A Wantagh N/A 84 63 48 NW6 N/A Hempstead NOT AVBL Matinecock Pt N/A 82 N/A N/A CALM N/A Farmingdale MOSUNNY 85 62 46 N9 29.89F MacArthur/ISP PTSUNNY 83 65 54 N7 29.89F Stony Brook N/A 79 66 65 NW3 N/A Shirley PTSUNNY 80 66 62 VRB3 29.89F Mt Sinai Harb N/A 81 N/A N/A NE3 N/A Westhampton PTSUNNY 79 73 82 VRB5 29.90F East Hampton CLOUDY N/A N/A N/A SE6 29.90F Southold N/A 77 70 78 S6 N/A Montauk N/A 76 71 85 VRB3 29.90F $$ NYZ052-065-067-111800- Hudson Valley CITY SKY/WX TMP DP RH WIND PRES REMARKS White Plains MOSUNNY 85 63 47 NW12 29.90F Larchmont Harb N/A 77 N/A N/A E7 N/A Croton On Huds N/A 82 N/A N/A SW2 N/A Somers N/A 81 57 44 NW3 N/A Brewster N/A 81 59 47 N5 N/A Newburgh MOSUNNY 84 54 34 NW12 29.91F Montgomery MOSUNNY 82 56 40 MISG 29.90F Otisville N/A 81 57 44 NW6 N/A Warwick N/A 81 55 41 W10 N/A Suffern N/A 82 57 42 W3 N/A Poughkeepsie SUNNY 85 57 38 VRB3 29.88F Albany PTSUNNY 80 58 46 NW8 29.89F $$ NJZ001-105-106-008-010-013-015-019>022-104-111800- New Jersey CITY SKY/WX TMP DP RH WIND PRES REMARKS Newark/Liberty PTSUNNY 86 58 38 CALM 29.88F Teterboro SUNNY 84 59 42 W10 29.87F Caldwell MOSUNNY 85 57 38 VRB6 29.90F Somerville MOSUNNY 88 58 36 N12G17 29.88F Linden FAIR 86 58 38 NW8 29.89F Perth Amboy N/A 81 N/A N/A W3 N/A Sussex MOSUNNY 83 58 42 VRB5 29.92F Andover N/A 86 57 37 MISG 29.92F Trenton MOSUNNY 83 65 54 VRB3 29.90F Millville MOSUNNY 83 71 67 VRB5 29.91F Atlantic City PTSUNNY 81 70 69 N5 29.91F Wrightstown MOSUNNY 85 65 50 NW5 29.90F Toms River NOT AVBL Belmar MOSUNNY 83 69 62 NW9 29.92F $$ PAZ047>061-062-071-111800- Eastern Pennsylvania CITY SKY/WX TMP DP RH WIND PRES REMARKS Philadelphia MOSUNNY 86 64 47 VRB5 29.91F Allentown MOSUNNY 85 58 39 W8 29.92F Scranton SUNNY 82 59 45 CALM 29.95F $$ CTZ002-004>006-009-010-012-RIZ004-006-007-MAZ004-011-015-111800- Southern New England In CT CITY SKY/WX TMP DP RH WIND PRES REMARKS Bradley Intl PTSUNNY 82 59 45 SW7 29.89F Hartford MOSUNNY N/A N/A N/A CALM 29.88F Danbury MOSUNNY 82 57 42 W9 29.92F Wtrbury/Oxford MOSUNNY 78 59 51 VRB3 29.93F Norwalk Harbor N/A 77 N/A N/A SE8 N/A Bridgeport PTSUNNY 80 71 74 SE10 29.88F Meriden MOSUNNY 83 57 41 VRB7 29.89F New Haven PTSUNNY 83 72 69 S10 29.89F Chester PTSUNNY 81 64 57 CALM 29.90F Groton PTSUNNY 76 71 85 S10 29.89F Willimantic PTSUNNY 79 59 50 CALM 29.90F In RI CITY SKY/WX TMP DP RH WIND PRES REMARKS Providence PTSUNNY 73 71 93 S9 29.91F Block Island PTSUNNY 72 70 94 SE6 29.90F Westerly CLOUDY 74 72 93 SE8 29.90F In MA CITY SKY/WX TMP DP RH WIND PRES REMARKS Boston CLOUDY 69 66 90 SE10 29.90F Worcester PTSUNNY 76 57 51 W10 29.93F Westfield PTSUNNY 81 56 42 NW7 29.89F Provincetown NOT AVBL Nantucket RAIN 71 69 93 SE3 29.92F FOG $$ ANZ330-335-338-340-345-350-353-355-111800- Coastal Marine Observations STATION/POSITION TIME SKY/WX TEMP WIND PRES VSBY WAVE AIR SEA DIR/SP/G HT/PER (UTC) (F) (DEG/KT/KT) (MB) (MI) (FT/S) NY Harb Entrance 1650 72 280/ 6/ 6 1011.7 1/ 9 20 S Fire Island 1640 76 1011.8 Great South Bay 1615 78 40/ 4/ 6 N/A 23 SSW Montauk P 1640 72 70/ 8/ 10 1012.3 15 E Barnegat Li 1626 77 N/A 2/10 Hudson Canyon 1640 75 76 310/ 10/ 12 1011.6 Kings Point 1630 80 72 20/ 3/ 5 1012.6 Execution Rocks 1630 78 140/ 4/ 16 N/A Western LI Sound 1645 79 160/ 2/ 4 N/A Central LI Sound NOT AVBL Robbins Reef 1624 79 80/ 5/ 6 1012.3 $$ >>>>>>>>>>>>>>>>>>>>>>>>>>>> KEY <<<<<<<<<<<<<<<<<<<<<<<<<<< > < > SKY/WX - Sky Condition/Present Weather < > TMP - Temperature in Fahrenheit < > DP - Dew Point in Fahrenheit < > RH - Relative Humidity in Percent < > WIND - Direction (from) and Speed in MPH < > PRES - Mean Sea Level Pressure (inches of Hg) < > WCI - Wind Chill Index < > VSB - Visibility in Miles < > HX - Heat Index < > TC - Temperature in Celsius < > VRB - Variable Wind Direction < > < >>>>>>>>>>>>>>>>>>>>>>>>>>>> KEY <<<<<<<<<<<<<<<<<<<<<<<<<<< ASUS41 KOKX 111714 RWROKX Regional Weather Roundup National Weather Service New York NY 100 PM EDT THU AUG 11 2022 Note: "FAIR" indicates few or no clouds below 12,000 feet with no significant weather and/or obstructions to visibility. NYZ071-072-176-178-NJZ106-104-111800- New York City Metro Area CITY SKY/WX TMP DP RH WIND PRES REMARKS Central Park SUNNY 84 61 45 CALM 29.92F World Trd Ctr NOT AVBL Bronx Lehman C NOT AVBL LaGuardia Arpt PTSUNNY 82 59 45 N5 29.88F Queens College NOT AVBL Kennedy Intl PTSUNNY 83 62 49 N8 29.89F Breezy Point NOT AVBL Brooklyn Coll NOT AVBL Staten Island NOT AVBL Newark/Liberty PTSUNNY 86 58 38 CALM 29.88F Teterboro SUNNY 84 59 42 W10 29.87F $$ NYZ177-179-078>081-111800- Long Island New York CITY SKY/WX TMP DP RH WIND PRES REMARKS Jones Beach NOT AVBL Wantagh NOT AVBL Hempstead NOT AVBL Matinecock Pt NOT AVBL Farmingdale MOSUNNY 85 62 46 N9 29.89F MacArthur/ISP PTSUNNY 83 65 54 N7 29.89F Stony Brook NOT AVBL Shirley PTSUNNY 80 66 62 VRB3 29.89F Mt Sinai Harb NOT AVBL Westhampton PTSUNNY 79 73 82 VRB5 29.90F East Hampton CLOUDY N/A N/A N/A SE6 29.90F Southold NOT AVBL Montauk N/A 76 71 85 VRB3 29.90F $$ NYZ052-065-067-111800- Hudson Valley CITY SKY/WX TMP DP RH WIND PRES REMARKS White Plains MOSUNNY 85 63 47 NW12 29.90F Larchmont Harb NOT AVBL Croton On Huds NOT AVBL Somers NOT AVBL Brewster NOT AVBL Newburgh MOSUNNY 84 54 34 NW12 29.91F Montgomery MOSUNNY 82 56 40 MISG 29.90F Otisville NOT AVBL Warwick NOT AVBL Suffern NOT AVBL Poughkeepsie SUNNY 85 57 38 VRB3 29.88F Albany PTSUNNY 80 58 46 NW8 29.89F $$ NJZ001-105-106-008-010-013-015-019>022-104-111800- New Jersey CITY SKY/WX TMP DP RH WIND PRES REMARKS Newark/Liberty PTSUNNY 86 58 38 CALM 29.88F Teterboro SUNNY 84 59 42 W10 29.87F Caldwell MOSUNNY 85 57 38 VRB6 29.90F Somerville MOSUNNY 88 58 36 N12G17 29.88F Linden FAIR 86 58 38 NW8 29.89F Perth Amboy NOT AVBL Sussex MOSUNNY 83 58 42 VRB5 29.92F Andover N/A 86 57 37 MISG 29.92F Trenton MOSUNNY 83 65 54 VRB3 29.90F Millville MOSUNNY 83 71 67 VRB5 29.91F Atlantic City PTSUNNY 81 70 69 N5 29.91F Wrightstown MOSUNNY 85 65 50 NW5 29.90F Toms River NOT AVBL Belmar MOSUNNY 83 69 62 NW9 29.92F $$ PAZ047>061-062-071-111800- Eastern Pennsylvania CITY SKY/WX TMP DP RH WIND PRES REMARKS Philadelphia MOSUNNY 86 64 47 VRB5 29.91F Allentown MOSUNNY 85 58 39 W8 29.92F Scranton SUNNY 82 59 45 CALM 29.95F $$ CTZ002-004>006-009-010-012-RIZ004-006-007-MAZ004-011-015-111800- Southern New England In CT CITY SKY/WX TMP DP RH WIND PRES REMARKS Bradley Intl PTSUNNY 82 59 45 SW7 29.89F Hartford MOSUNNY N/A N/A N/A CALM 29.88F Danbury MOSUNNY 82 57 42 W9 29.92F Wtrbury/Oxford MOSUNNY 78 59 51 VRB3 29.93F Norwalk Harbor NOT AVBL Bridgeport PTSUNNY 80 71 74 SE10 29.88F Meriden MOSUNNY 83 57 41 VRB7 29.89F New Haven PTSUNNY 83 72 69 S10 29.89F Chester PTSUNNY 81 64 57 CALM 29.90F Groton PTSUNNY 76 71 85 S10 29.89F Willimantic PTSUNNY 79 59 50 CALM 29.90F In RI CITY SKY/WX TMP DP RH WIND PRES REMARKS Providence PTSUNNY 73 71 93 S9 29.91F Block Island PTSUNNY 72 70 94 SE6 29.90F Westerly CLOUDY 74 72 93 SE8 29.90F In MA CITY SKY/WX TMP DP RH WIND PRES REMARKS Boston CLOUDY 69 66 90 SE10 29.90F Worcester PTSUNNY 76 57 51 W10 29.93F Westfield PTSUNNY 81 56 42 NW7 29.89F Provincetown NOT AVBL Nantucket RAIN 71 69 93 SE3 29.92F FOG $$ ANZ330-335-338-340-345-350-353-355-111800- Coastal Marine Observations STATION/POSITION TIME SKY/WX TEMP WIND PRES VSBY WAVE AIR SEA DIR/SP/G HT/PER (UTC) (F) (DEG/KT/KT) (MB) (MI) (FT/S) NY Harb Entrance 1650 72 280/ 6/ 6 1011.7 1/ 9 20 S Fire Island 1640 76 1011.8 Great South Bay 1615 78 40/ 4/ 6 N/A 23 SSW Montauk P 1640 72 70/ 8/ 10 1012.3 15 E Barnegat Li 1626 77 N/A 2/10 Hudson Canyon 1640 75 76 310/ 10/ 12 1011.6 Kings Point 1630 80 72 20/ 3/ 5 1012.6 Execution Rocks 1630 78 140/ 4/ 16 N/A Western LI Sound 1645 79 160/ 2/ 4 N/A Central LI Sound NOT AVBL Robbins Reef 1624 79 80/ 5/ 6 1012.3 $$ >>>>>>>>>>>>>>>>>>>>>>>>>>>> KEY <<<<<<<<<<<<<<<<<<<<<<<<<<< > < > SKY/WX - Sky Condition/Present Weather < > TMP - Temperature in Fahrenheit < > DP - Dew Point in Fahrenheit < > RH - Relative Humidity in Percent < > WIND - Direction (from) and Speed in MPH < > PRES - Mean Sea Level Pressure (inches of Hg) < > WCI - Wind Chill Index < > VSB - Visibility in Miles < > HX - Heat Index < > TC - Temperature in Celsius < > VRB - Variable Wind Direction < > < >>>>>>>>>>>>>>>>>>>>>>>>>>>> KEY <<<<<<<<<<<<<<<<<<<<<<<<<<<